EW9518 Weather Reports


time (UTC)temp
F
wind
direction
speed
knots
gust
knots
rain 1hr
in
rain 24hr
in
rain mn
in
humidity
%
barometer
mb
20200531070124 68 150 0.0 0.0 0.00 0.00 0.00 65 1015.5
20200531065537 68 150 0.0 0.0 0.00 0.00 0.00 65 1015.6
20200531065031 68 157 0.0 0.0 0.00 0.00 0.00 65 1015.6
20200531063529 68 150 0.0 0.0 0.00 0.00 0.00 64 1015.6
20200531063055 68 156 0.0 0.0 0.00 0.00 0.00 64 1015.7
20200531062530 68 156 0.0 0.0 0.00 0.00 0.00 63 1015.7
20200531062026 69 157 0.0 0.0 0.00 0.00 0.00 63 1015.7
20200531061533 69 158 0.0 0.0 0.00 0.00 0.00 63 1015.6
20200531061025 69 174 0.0 0.0 0.00 0.00 0.00 63 1015.6
20200531060525 69 157 0.0 0.0 0.00 0.00 0.00 63 1015.5
20200531060110 69 150 0.0 0.0 0.00 0.00 0.00 62 1015.6
20200531055530 70 152 0.0 0.0 0.00 0.00 0.00 62 1015.6
20200531055032 70 156 0.0 0.9 0.00 0.00 0.00 61 1015.5
20200531054526 70 128 0.0 0.9 0.00 0.00 0.00 61 1015.6
20200531053522 70 119 0.0 0.0 0.00 0.00 0.00 60 1015.6
20200531053041 71 150 0.0 0.9 0.00 0.00 0.00 60 1015.5
20200531052519 71 148 0.0 0.9 0.00 0.00 0.00 60 1015.5
20200531052036 71 156 0.0 1.7 0.00 0.00 0.00 59 1015.6
20200531051520 71 133 0.0 1.7 0.00 0.00 0.00 58 1015.5
20200531051017 72 173 0.0 1.7 0.00 0.00 0.00 58 1015.6
20200531050516 72 127 0.0 1.7 0.00 0.00 0.00 58 1015.6
20200531050022 72 128 0.0 1.7 0.00 0.00 0.00 57 1015.5
20200531045525 72 138 0.0 1.7 0.00 0.00 0.00 57 1015.5
20200531045016 72 131 0.0 0.0 0.00 0.00 0.00 57 1015.5
20200531044526 72 130 0.0 0.0 0.00 0.00 0.00 56 1015.5
20200531043517 73 128 0.0 2.6 0.00 0.00 0.00 55 1015.5
20200531043107 73 129 0.0 2.6 0.00 0.00 0.00 55 1015.3
20200531042518 73 142 0.0 0.9 0.00 0.00 0.00 54 1015.4
20200531042017 73 150 0.0 1.7 0.00 0.00 0.00 54 1015.4
20200531041551 74 143 0.0 1.7 0.00 0.00 0.00 53 1015.4
20200531041023 74 136 0.0 0.9 0.00 0.00 0.00 52 1015.4
20200531040518 74 114 0.0 0.0 0.00 0.00 0.00 52 1015.3
20200531040018 74 139 0.0 0.0 0.00 0.00 0.00 51 1015.3
20200531035523 74 129 0.0 2.6 0.00 0.00 0.00 51 1015.2
20200531035016 75 116 0.0 2.6 0.00 0.00 0.00 50 1015.2
20200531034519 75 111 0.0 0.9 0.00 0.00 0.00 50 1015.2
20200531033526 75 126 0.0 0.9 0.00 0.00 0.00 50 1015.2
20200531033052 75 119 0.0 5.2 0.00 0.00 0.00 50 1015.1
20200531032019 76 96 0.0 1.7 0.00 0.00 0.00 49 1015.0
20200531031524 76 108 0.0 6.1 0.00 0.00 0.00 49 1015.0
20200531031020 76 130 0.0 3.5 0.00 0.00 0.00 49 1014.9
20200531030519 76 107 0.0 3.5 0.00 0.00 0.00 49 1014.7
20200531030045 77 90 0.0 7.8 0.00 0.00 0.00 49 1014.7
20200531025519 77 101 0.0 8.7 0.00 0.00 0.00 49 1014.6
20200531025019 77 117 0.0 9.6 0.00 0.00 0.00 48 1014.6
20200531024535 77 96 1.7 9.6 0.00 0.00 0.00 49 1014.5
20200531023518 78 144 0.0 8.7 0.00 0.00 0.00 50 1014.4
20200531023030 78 123 0.0 8.7 0.00 0.00 0.00 49 1014.3
20200531022518 78 95 0.0 7.0 0.00 0.00 0.00 49 1014.3
20200531022019 78 103 0.0 7.0 0.00 0.00 0.00 48 1014.3
20200531021525 79 110 0.0 1.7 0.00 0.00 0.00 48 1014.2
20200531021017 79 112 0.0 6.1 0.00 0.00 0.00 47 1014.2
20200531020517 79 80 0.0 6.1 0.00 0.00 0.00 46 1014.2
20200531020020 79 95 0.0 5.2 0.00 0.00 0.00 46 1014.1
20200531015518 80 127 0.0 5.2 0.00 0.00 0.00 45 1014.2
20200531015017 80 93 0.0 8.7 0.00 0.00 0.00 44 1014.1
20200531014518 80 103 1.7 13.0 0.00 0.00 0.00 44 1014.1
20200531013534 80 130 0.0 12.2 0.00 0.00 0.00 43 1014.1
20200531013032 80 88 4.3 15.6 0.00 0.00 0.00 43 1014.0
20200531012520 81 125 2.6 15.6 0.00 0.00 0.00 43 1014.0
20200531012032 81 114 5.2 14.8 0.00 0.00 0.00 43 1014.0
20200531011517 81 78 4.3 13.0 0.00 0.00 0.00 43 1014.0
20200531011013 82 88 4.3 13.9 0.00 0.00 0.00 43 1013.9
20200531010532 82 111 1.7 13.9 0.00 0.00 0.00 44 1013.7
20200531010015 82 96 4.3 13.9 0.00 0.00 0.00 44 1013.7
20200531005515 82 85 1.7 13.0 0.00 0.00 0.00 44 1013.6
20200531005020 83 68 5.2 13.0 0.00 0.00 0.00 44 1013.5
20200531004531 83 84 2.6 13.0 0.00 0.00 0.00 44 1013.6
20200531003513 83 96 0.9 12.2 0.00 0.00 0.00 43 1013.4
20200531003014 83 140 0.0 11.3 0.00 0.00 0.00 42 1013.4
20200531002516 83 101 0.0 13.0 0.00 0.00 0.00 42 1013.3
20200531002013 83 128 0.9 15.6 0.00 0.00 0.00 41 1013.3
20200531001536 83 105 2.6 15.6 0.00 0.00 0.00 41 1013.2
20200531001021 84 101 0.9 12.2 0.00 0.00 0.00 41 1013.2
20200531000512 84 54 1.7 12.2 0.00 0.00 0.00 41 1013.3
20200531000047 84 129 1.7 12.2 0.00 0.00 0.00 41 1013.2
20200530235513 84 119 0.9 11.3 0.00 0.00 0.00 41 1013.2
20200530235012 85 102 0.9 13.0 0.00 0.00 0.00 41 1013.2
20200530234530 85 94 4.3 15.6 0.00 0.00 0.00 40 1013.2
20200530233514 85 115 0.9 13.9 0.00 0.00 0.00 40 1013.2
20200530233021 85 111 0.9 13.0 0.00 0.00 0.00 39 1013.2
20200530232514 84 134 1.7 13.9 0.00 0.00 0.00 40 1013.3
20200530232012 84 89 1.7 15.6 0.00 0.00 0.00 39 1013.4
20200530231512 84 77 7.0 15.6 0.00 0.00 0.00 39 1013.5
20200530231016 84 123 0.9 13.0 0.00 0.00 0.00 40 1013.4
20200530230512 84 105 3.5 13.0 0.00 0.00 0.00 40 1013.6
20200530230011 84 128 3.5 13.0 0.00 0.00 0.00 40 1013.6
20200530225511 84 123 1.7 12.2 0.00 0.00 0.00 40 1013.5
20200530225017 84 122 0.0 5.2 0.00 0.00 0.00 41 1013.7
20200530224510 84 79 0.0 4.3 0.00 0.00 0.00 41 1013.7
20200530223508 85 54 0.0 8.7 0.00 0.00 0.00 41 1013.8
20200530223126 85 79 0.0 9.6 0.00 0.00 0.00 41 1013.9
20200530222507 85 66 0.9 9.6 0.00 0.00 0.00 40 1014.0
20200530222007 85 97 2.6 10.4 0.00 0.00 0.00 39 1014.0
20200530221516 86 73 1.7 13.0 0.00 0.00 0.00 39 1014.1
20200530221005 86 120 1.7 13.0 0.00 0.00 0.00 39 1014.2
20200530220505 87 83 0.9 8.7 0.00 0.00 0.00 38 1014.2
20200530220014 86 52 0.0 14.8 0.00 0.00 0.00 39 1014.2
20200530215516 86 80 3.5 16.5 0.00 0.00 0.00 38 1014.3
20200530215007 87 35 4.3 16.5 0.00 0.00 0.00 37 1014.3
20200530214510 87 58 0.9 11.3 0.00 0.00 0.00 38 1014.4
20200530213508 86 98 0.0 15.6 0.00 0.00 0.00 38 1014.5
20200530213004 86 77 7.0 15.6 0.00 0.00 0.00 38 1014.5
20200530212510 86 153 0.0 12.2 0.00 0.00 0.00 39 1014.5
20200530212007 85 21 0.0 7.0 0.00 0.00 0.00 40 1014.6
20200530211516 86 119 0.0 7.0 0.00 0.00 0.00 39 1014.6
20200530211005 86 61 0.0 7.0 0.00 0.00 0.00 39 1014.7
20200530210500 86 84 0.0 4.3 0.00 0.00 0.00 38 1014.8
20200530210001 86 355 0.0 13.0 0.00 0.00 0.00 39 1014.9
20200530205102 86 73 0.0 8.7 0.00 0.00 0.00 38 1014.9
20200530204641 86 107 0.0 7.8 0.00 0.00 0.00 39 1015.0
20200530203556 86 85 0.0 13.0 0.00 0.00 0.00 38 1015.1
20200530203132 87 41 2.6 13.0 0.00 0.00 0.00 38 1015.1
20200530202632 87 119 0.0 2.6 0.00 0.00 0.00 39 1015.2
20200530202056 87 121 0.0 0.0 0.00 0.00 0.00 38 1015.2
20200530201648 87 97 0.0 3.5 0.00 0.00 0.00 37 1015.3
20200530201056 87 84 0.0 12.2 0.00 0.00 0.00 39 1015.4
20200530200553 87 94 1.7 12.2 0.00 0.00 0.00 37 1015.5
20200530200119 87 71 0.0 5.2 0.00 0.00 0.00 37 1015.5
20200530195553 87 47 0.9 7.8 0.00 0.00 0.00 39 1015.6
20200530195107 87 126 0.0 6.1 0.00 0.00 0.00 38 1015.7
20200530194602 88 77 0.0 9.6 0.00 0.00 0.00 37 1015.8
20200530193552 88 96 0.9 9.6 0.00 0.00 0.00 37 1015.9
20200530193227 88 38 0.0 9.6 0.00 0.00 0.00 37 1015.9
20200530192551 89 62 0.9 7.8 0.00 0.00 0.00 36 1016.0
20200530192053 88 80 0.0 7.8 0.00 0.00 0.00 37 1016.0
20200530191622 87 126 0.0 7.0 0.00 0.00 0.00 39 1016.1
20200530191055 87 84 0.0 7.8 0.00 0.00 0.00 39 1016.2
20200530190546 87 44 0.0 9.6 0.00 0.00 0.00 40 1016.3
20200530190117 87 74 0.0 5.2 0.00 0.00 0.00 39 1016.3
20200530185545 87 345 0.0 3.5 0.00 0.00 0.00 37 1016.3
20200530185044 87 58 0.0 11.3 0.00 0.00 0.00 38 1016.4
20200530184554 87 56 0.0 11.3 0.00 0.00 0.00 38 1016.6
20200530183547 86 53 0.0 12.2 0.00 0.00 0.00 38 1016.8
20200530183104 85 74 2.6 12.2 0.00 0.00 0.00 40 1016.9
20200530182539 85 101 0.9 10.4 0.00 0.00 0.00 39 1016.9
20200530182046 85 126 0.0 12.2 0.00 0.00 0.00 37 1017.0
20200530181546 85 52 1.7 12.2 0.00 0.00 0.00 38 1017.1
20200530181037 85 82 0.0 7.0 0.00 0.00 0.00 40 1017.2
20200530180536 85 100 0.0 1.7 0.00 0.00 0.00 37 1017.2
20200530180042 85 115 0.0 12.2 0.00 0.00 0.00 38 1017.3
20200530175541 85 76 0.0 12.2 0.00 0.00 0.00 36 1017.4
20200530175045 85 74 0.0 10.4 0.00 0.00 0.00 37 1017.4
20200530174546 85 62 0.0 6.1 0.00 0.00 0.00 38 1017.4
20200530173532 84 170 0.0 9.6 0.00 0.00 0.00 40 1017.7
20200530173041 84 150 0.0 12.2 0.00 0.00 0.00 38 1017.7
20200530172535 85 109 0.0 12.2 0.00 0.00 0.00 39 1017.8
20200530172036 84 140 0.0 8.7 0.00 0.00 0.00 37 1017.8
20200530171637 84 78 0.0 9.6 0.00 0.00 0.00 38 1017.8
20200530171039 84 83 0.9 9.6 0.00 0.00 0.00 39 1017.8
20200530170526 83 155 0.0 0.9 0.00 0.00 0.00 38 1017.9
20200530170035 83 33 0.0 7.8 0.00 0.00 0.00 39 1017.9
20200530165523 83 99 0.0 7.8 0.00 0.00 0.00 39 1018.0
20200530165033 82 98 0.0 7.8 0.00 0.00 0.00 39 1018.0
20200530164541 83 104 0.0 3.5 0.00 0.00 0.00 40 1018.1
20200530163523 82 78 0.0 3.5 0.00 0.00 0.00 41 1018.2
20200530163041 81 63 0.0 0.9 0.00 0.00 0.00 42 1018.1
20200530162520 81 137 0.0 0.9 0.00 0.00 0.00 45 1018.2
20200530162022 80 103 0.0 5.2 0.00 0.00 0.00 45 1018.2
20200530161556 80 167 0.0 0.9 0.00 0.00 0.00 48 1018.2
20200530161022 81 147 0.0 0.9 0.00 0.00 0.00 46 1018.3
20200530160518 80 10 0.0 0.0 0.00 0.00 0.00 47 1018.2
20200530160025 80 183 0.0 0.0 0.00 0.00 0.00 49 1018.2
20200530155512 79 113 0.0 6.1 0.00 0.00 0.00 47 1018.3
20200530155011 79 136 0.0 6.1 0.00 0.00 0.00 48 1018.3
20200530154513 79 106 0.0 1.7 0.00 0.00 0.00 48 1018.4
20200530153520 78 155 0.0 4.3 0.00 0.00 0.00 51 1018.6
20200530153005 78 156 0.0 0.9 0.00 0.00 0.00 51 1018.6
20200530152503 78 148 0.0 2.6 0.00 0.00 0.00 51 1018.5
20200530152005 77 186 0.0 2.6 0.00 0.00 0.00 51 1018.5
20200530151505 78 171 0.0 0.9 0.00 0.00 0.00 51 1018.6
20200530151100 77 80 0.0 1.7 0.00 0.00 0.00 52 1018.6
20200530150559 77 119 0.0 7.0 0.00 0.00 0.00 51 1018.7
20200530150204 77 119 0.0 6.1 0.00 0.00 0.00 51 1018.7
20200530145556 77 126 0.0 6.1 0.00 0.00 0.00 52 1018.8
20200530145054 76 113 0.0 0.9 0.00 0.00 0.00 54 1018.9
20200530144631 76 111 0.0 0.9 0.00 0.00 0.00 53 1019.0
20200530144052 74 125 0.0 0.9 0.00 0.00 0.00 56 1019.0
20200530143600 74 117 0.0 0.9 0.00 0.00 0.00 56 1019.0
20200530143158 74 133 0.0 0.0 0.00 0.00 0.00 57 1019.0
20200530142608 73 132 0.0 0.0 0.00 0.00 0.00 59 1019.1
20200530142115 73 143 0.0 0.0 0.00 0.00 0.00 60 1019.0
20200530141627 72 130 0.0 0.0 0.00 0.00 0.00 60 1019.0
20200530141047 72 349 0.0 0.0 0.00 0.00 0.00 60 1018.9
20200530140544 71 349 0.0 0.0 0.00 0.00 0.00 60 1019.0
20200530140106 70 349 0.0 0.0 0.00 0.00 0.00 62 1018.9
20200530135544 69 349 0.0 0.0 0.00 0.00 0.00 64 1018.9
20200530135039 68 348 0.0 0.0 0.00 0.00 0.00 65 1018.9
20200530134548 68 348 0.0 0.0 0.00 0.00 0.00 66 1018.9
20200530134036 67 349 0.0 0.0 0.00 0.00 0.00 69 1018.9
20200530133542 67 349 0.0 0.0 0.00 0.00 0.00 69 1018.9
20200530133039 66 325 0.0 0.0 0.00 0.00 0.00 69 1018.9
20200530132536 65 336 0.0 0.0 0.00 0.00 0.00 71 1018.9
20200530132035 65 336 0.0 0.0 0.00 0.00 0.00 72 1018.8
20200530131706 64 336 0.0 0.0 0.00 0.00 0.00 72 1018.7
20200530131033 64 323 0.0 0.0 0.00 0.00 0.00 73 1018.8
20200530130532 63 319 0.0 0.0 0.00 0.00 0.00 73 1018.7
20200530130122 63 317 0.0 0.0 0.00 0.00 0.00 74 1018.7
20200530125536 63 350 0.0 0.0 0.00 0.00 0.00 74 1018.7
20200530125032 62 355 0.0 0.9 0.00 0.00 0.00 74 1018.7
20200530124539 62 5 0.0 0.9 0.00 0.00 0.00 74 1018.7
20200530124034 62 294 0.0 0.9 0.00 0.00 0.00 74 1018.7
20200530123526 62 294 0.0 0.9 0.00 0.00 0.00 75 1018.8
20200530123035 61 296 0.0 0.9 0.00 0.00 0.00 74 1018.7
20200530122526 61 295 0.0 0.0 0.00 0.00 0.00 75 1018.7
20200530122026 61 295 0.0 0.9 0.00 0.00 0.00 75 1018.6
20200530121601 60 311 0.0 0.9 0.00 0.00 0.00 75 1018.6
20200530121028 60 321 0.0 0.9 0.00 0.00 0.00 75 1018.6
20200530120523 60 288 0.0 0.9 0.00 0.00 0.00 75 1018.5
20200530120046 60 289 0.0 0.9 0.00 0.00 0.00 75 1018.5
20200530115523 60 340 0.0 0.9 0.00 0.00 0.00 75 1018.4
20200530115027 60 336 0.0 0.9 0.00 0.00 0.00 75 1018.3
20200530114533 60 328 0.0 2.6 0.00 0.00 0.00 75 1018.3
20200530114042 60 285 0.0 1.7 0.00 0.00 0.00 75 1018.2
20200530113521 60 294 0.0 1.7 0.00 0.00 0.00 75 1018.2
20200530113025 60 307 0.0 0.0 0.00 0.00 0.00 75 1018.2
20200530112520 60 308 0.0 0.0 0.00 0.00 0.00 75 1018.1
20200530112024 60 309 0.0 0.0 0.00 0.00 0.00 75 1018.2
20200530111537 60 311 0.0 0.0 0.00 0.00 0.00 75 1018.2
20200530111020 60 311 0.0 0.0 0.00 0.00 0.00 74 1018.2
20200530110524 60 313 0.0 0.0 0.00 0.00 0.00 74 1018.1
20200530110025 60 316 0.0 0.0 0.00 0.00 0.00 74 1018.1
20200530105522 60 323 0.0 0.0 0.00 0.00 0.00 74 1018.1
20200530105033 60 323 0.0 0.0 0.00 0.00 0.00 74 1018.0
20200530104545 60 323 0.0 0.0 0.00 0.00 0.00 74 1017.9
20200530104022 60 324 0.0 0.0 0.00 0.00 0.00 73 1017.9
20200530103523 60 324 0.0 0.0 0.00 0.00 0.00 73 1017.9
20200530103020 60 324 0.0 0.0 0.00 0.00 0.00 73 1017.9
20200530102516 60 332 0.0 0.0 0.00 0.00 0.00 73 1018.0
20200530102016 60 335 0.0 0.0 0.00 0.00 0.00 73 1018.0
20200530101535 61 335 0.0 0.0 0.00 0.00 0.00 72 1017.9
20200530101015 61 336 0.0 0.0 0.00 0.00 0.00 72 1017.9
20200530100514 61 336 0.0 0.0 0.00 0.00 0.00 72 1017.9
20200530100014 61 336 0.0 0.0 0.00 0.00 0.00 72 1017.9
20200530095524 61 336 0.0 0.0 0.00 0.00 0.00 72 1017.8
20200530095014 61 336 0.0 0.0 0.00 0.00 0.00 72 1017.9
20200530094513 61 336 0.0 0.0 0.00 0.00 0.00 72 1017.8
20200530094013 61 336 0.0 0.0 0.00 0.00 0.00 72 1017.9
20200530093513 61 336 0.0 0.0 0.00 0.00 0.00 72 1017.9
20200530093027 61 336 0.0 0.0 0.00 0.00 0.00 71 1017.8
20200530092520 62 336 0.0 0.0 0.00 0.00 0.00 71 1017.8
20200530092012 62 336 0.0 0.0 0.00 0.00 0.00 71 1017.7
20200530091019 62 335 0.0 0.0 0.00 0.00 0.00 70 1017.7
20200530090517 62 336 0.0 0.0 0.00 0.00 0.00 70 1017.7
20200530090017 62 336 0.0 0.0 0.00 0.00 0.00 69 1017.6
20200530085508 62 336 0.0 0.0 0.00 0.00 0.00 69 1017.6
20200530085024 63 336 0.0 0.0 0.00 0.00 0.00 68 1017.6
20200530084524 63 336 0.0 0.0 0.00 0.00 0.00 68 1017.6
20200530084012 63 336 0.0 0.0 0.00 0.00 0.00 68 1017.6
20200530083510 63 336 0.0 0.0 0.00 0.00 0.00 68 1017.7
20200530083010 63 336 0.0 0.0 0.00 0.00 0.00 68 1017.7
20200530082512 63 336 0.0 0.0 0.00 0.00 0.00 68 1017.7
20200530082009 63 336 0.0 0.0 0.00 0.00 0.00 68 1017.7
20200530081527 63 336 0.0 0.0 0.00 0.00 0.00 68 1017.6
20200530081008 63 336 0.0 0.0 0.00 0.00 0.00 68 1017.6
20200530080507 63 336 0.0 0.0 0.00 0.00 0.00 69 1017.6
20200530080007 62 337 0.0 0.0 0.00 0.00 0.00 69 1017.5
20200530075508 62 338 0.0 0.0 0.00 0.00 0.00 69 1017.5
20200530075008 63 341 0.0 0.0 0.00 0.00 0.00 69 1017.6
20200530074508 63 341 0.0 0.0 0.00 0.00 0.00 69 1017.5
20200530074007 63 346 0.0 0.0 0.00 0.00 0.00 69 1017.6
20200530073511 63 346 0.0 0.0 0.00 0.00 0.00 69 1017.5
20200530073016 63 346 0.0 0.0 0.00 0.00 0.00 70 1017.6
20200530072506 63 346 0.0 0.0 0.00 0.00 0.00 70 1017.6
20200530072004 63 346 0.0 0.0 0.00 0.00 0.00 70 1017.7
20200530071507 63 346 0.0 0.0 0.00 0.00 0.00 70 1017.7
20200530071010 63 346 0.0 0.0 0.00 0.00 0.00 69 1017.8